SL-16 DEB, 22617

Orbit data source: Space-Track

SL-16 DEB, 22617 is space debris in LEO originally from a launch on Fri, 26 Mar 1993 UTC launched from the Tyuratam Missile And Space Complex (TTMTR). Debris objects in space refer to the collection of defunct objects orbiting the Earth. Examples of debris include non-operational satellites, rocket bodies, and fragments generated from explosions, collisions, or faulty payload assembly.

Loading next visibility...
Identifier
22617, 1993-016AB
Orbit
LEO
Country
Flag of CISCIS
Related business
Manufacturer
Unknown
Mission
Spacecraft
Bus & Motor
Unknown
Mass
Unknown
Launch date (UTC)
1993-03-26 (33 years ago)
Launch vehicle
Unknown
Launch site
Tyuratam Missile And Space Complex (TTMTR)
Object type
Payload
Rocket body
Debris
Shape & HBR
Unknown shape, 0.1 m
Radar Cross Section
Medium (>0.1 m² and <1 m²)

Expand to show TLE details & history
Last TLE update: 19 hours ago

TLE from 19 hours ago
0 SL-16 DEB
1 22617U 93016AB  26255.12845360  .00000322  00000-0  26480-3 0  9996
2 22617  70.9971 286.9217 0132624  20.6748  47.7727 13.92541509692621
Epoch: 2026-09-12T03:04Z
TLE epoch observation values (Epoch: 2026-09-12T03:04:58.391Z)
Latitude
62.49615°
Longitude
-69.31936°
Altitude
865.574 km
Speed
7.459 km/s
True Right ascension
21h 52m 15s
True Declination
62° 21' 26"
Sunlit
Object was in daylight at epoch
Visualization orbit readout
Latitude
Unknown
Longitude
Unknown
Altitude
Unknown
Speed
Unknown
Apparent Right ascension
Unknown
Apparent Declination
Unknown
Sunlit
N/A
Visualization observer readout
Local Sidereal Time
14:50:35
Azimuth
Unknown
Elevation
Unknown
Doppler factor
Unknown
Orbital elements
Apogee altitude
1,014.445 km
Perigee altitude
820.924 km
Semi-major axis
7,295.822 km
Eccentricity
0.01326
Inclination
70.9971°
RAAN
286.9217°
Arg. of periapsis
20.6748°
True anomaly
48.91066°
Mean anomaly
47.7727°
Eccentric anomaly
48.34041°
Mean motion
3.48283 °/min
Orbital period
103.36 mins
BSTAR
0.0002648
Loading maneuver chart data...
Computing Atmospheric mass density...
Loading historical data...
Loading historical data...
Loading historical data...
Loading historical data...
Loading historical data...
Loading historical data...
Loading historical data...

Documentation

Showing up to 5 results
|